[Iaude] MPEC T165: 2023 TA6 [a=1.86,e=0.49,i=6.2,H=27.0]

mpec at marsden.cfa.harvard.edu mpec at marsden.cfa.harvard.edu
Wed Oct 11 17:33:21 EDT 2023


M.P.E.C. 2023-T165                             Issued 2023 October 11, 21:32 UT

     The Minor Planet Electronic Circulars contain information on unusual
         minor planets, routine data on comets and natural satellites,
         and occasional editorial announcements.  They are published
    on behalf of Division F of the International Astronomical Union by the
          Minor Planet Center, Smithsonian Astrophysical Observatory,
                          Cambridge, MA 02138, U.S.A.
			  
             Prepared using the Tamkin Foundation Computer Network

                              MPC at CFA.HARVARD.EDU
            URL https://www.minorplanetcenter.net/    ISSN 1523-6714

                                    2023 TA6                                    


Observations:
     K23T06A*1C2023 10 11.24301001 04 58.663+13 47 21.70         19.69GVET165G96
     K23T06A 1C2023 10 11.24820601 05 05.478+13 46 29.14         19.76GVET165G96
     K23T06A 1C2023 10 11.25341101 05 12.268+13 45 36.40         19.75GVET165G96
     K23T06A 1C2023 10 11.25861701 05 18.989+13 44 44.05         19.61GVET165G96
     K23T06A  C2023 10 11.27960601 05 45.225+13 41 04.60         19.5 GVET165H01
     K23T06A  C2023 10 11.28420801 05 51.155+13 40 17.95         20.1 GVET165H01
     K23T06A  C2023 10 11.29478301 06 04.780+13 38 30.65         19.9 GVET165H01
     K23T06A KC2023 10 11.29836801 06 10.354+13 38 01.28         19.36GVET165I52
     K23T06A KC2023 10 11.29928601 06 11.531+13 37 51.96         19.64GVET165I52
     K23T06A KC2023 10 11.30020201 06 12.704+13 37 43.10         19.91GVET165I52
     K23T06A KC2023 10 11.30112201 06 13.882+13 37 33.82         19.68GVET165I52
     K23T06A  C2023 10 11.30202401 06 14.071+13 37 17.25         19.9 GVET165H01
     K23T06A KC2023 10 11.42224301 08 47.231+13 17 11.87         19.88GVET165I52
     K23T06A KC2023 10 11.42333101 08 48.592+13 17 00.92         19.92GVET165I52
     K23T06A KC2023 10 11.42442701 08 49.978+13 16 49.80         19.80GVET165I52
     K23T06A KC2023 10 11.42551301 08 51.353+13 16 38.93         20.09GVET165I52
     K23T06A KC2023 10 11.81913 01 17 24.95 +12 14 22.3          19.5 GVET165104
     K23T06A KC2023 10 11.82982901 17 38.58 +12 12 43.9          19.3 GXET165958
     K23T06A KC2023 10 11.83362 01 17 41.35 +12 12 17.2          19.6 GVET165104
     K23T06A KC2023 10 11.83702301 17 46.74 +12 11 43.0          19.7 GXET165958
     K23T06A KC2023 10 11.84421201 17 54.76 +12 10 40.3                XET165958
     K23T06A KC2023 10 11.84684701 17 56.00 +12 10 21.6          21.1 GVET165598
     K23T06A KC2023 10 11.84901401 17 58.38 +12 10 02.8          20.0 GVET165598
     K23T06A KC2023 10 11.85084701 18 00.46 +12 09 46.5          20.4 GVET165598
     K23T06A KB2023 10 11.85244901 18 03.85 +12 09 26.1          20.3 GVET165I93
     K23T06A KC2023 10 11.85286001 18 02.63 +12 09 29.3          20.1 GVET165598
     K23T06A KB2023 10 11.85500401 18 06.68 +12 09 04.1          20.2 GVET165I93
     K23T06A KB2023 10 11.85755201 18 09.54 +12 08 42.2          20.6 GVET165I93

Observer details:
104 San Marcello Pistoiese.  Observers P. Bacci, M. Maestripieri.  Measurer P.
    Bacci.  0.60-m f/4.0 reflector + CCD.
598 Loiano.  Observer A. Carbognani.  1.52-m f/4.7 Reflector + CCD.
958 Observatoire de Dax.  Observers P. Dupouy, J. B. de Vanssay.  Measurer P.
    Dupouy.  0.43-m f/2.7 Reflector + CCD.
G96 Mt. Lemmon Survey.  Observer D. Rankin.  Measurers E. C. Beshore, D. Fay,
    J. B. Fazekas, D. C. Fuls, A. R. Gibbs, A. D. Grauer, H. Groeller, J. K.
    Hogan, R. A. Kowalski, S. M. Larson, G. J. Leonard, D. Rankin, R. L.
    Seaman, F. C. Shelly, K. W. Wierzchos.  1.5-m reflector + 10K CCD.
H01 Magdalena Ridge Observatory, Socorro.  Observers W. H. Ryan, E. V. Ryan.
    Measurer W. H. Ryan.  2.4-m f/8.9 Ritchey-Chretien + CCD.
I52 Steward Observatory, Mt. Lemmon Station.  Observer J. B. Fazekas.
    Measurers E. C. Beshore, D. Fay, J. B. Fazekas, D. C. Fuls, A. R. Gibbs,
    A. D. Grauer, H. Groeller, J. K. Hogan, R. A. Kowalski, S. M. Larson, G.
    J. Leonard, D. Rankin, R. L. Seaman, F. C. Shelly, K. W. Wierzchos.  1.0-m
    prime focus + CCD.
I93 St Pardon de Conques.  Observer F. Losse.  0.40-m f/3.7 reflector + CMO.

Orbital elements:
2023 TA6                                                 Earth MOID = 0.0168 AU
Epoch 2023 Sept. 13.0 TT = JDT 2460200.5                Bell                    
M   1.48044              (2000.0)            P               Q                  
n   0.38896774     Peri.  138.93858     +0.92711953     +0.37304660             
a   1.8586331      Node   199.24882     -0.36595334     +0.88054013             
e   0.4866135      Incl.    6.24390     -0.08079309     +0.29237871             
P   2.53           H   27.01          G   0.15           U   8                  
Residuals in seconds of arc
231011 G96  0.0   0.0     231011 I52  0.0   0.2+    231011 958  1.2-  0.4+
231011 G96  0.2+  0.0     231011 H01  0.1+  0.2-    231011 598  0.2+  0.2+
231011 G96  0.1+  0.0     231011 I52  0.2-  0.1-    231011 598  0.2-  0.2+
231011 G96  0.7-  0.4+    231011 I52  0.4-  0.1-    231011 598  0.5+  0.1-
231011 H01  0.2+  0.0     231011 I52  0.3-  0.2-    231011 I93  0.1+  0.1+
231011 H01  0.0   0.0     231011 I52  0.2-  0.2-    231011 598  0.4-  0.2+
231011 H01  0.2+  0.2-    231011 104  0.5-  1.1-    231011 I93  0.4-  0.3+
231011 I52  0.0   0.2-    231011 958  0.2+  0.9-    231011 I93  0.2-  0.4+
231011 I52  0.0   0.2-    231011 104  0.5+  0.1+
231011 I52  0.0   0.2+    231011 958  0.2+  0.7+

Ephemeris:
2023 TA6                 a,e,i = 1.86, 0.49, 6                   q = 0.9542
Date    TT    R. A. (2000) Decl.     Delta      r    Elong.  Phase     V
2023 09 11    15 36 38.2 +07 41 31   0.1468  0.9545    65.1   106.9    26.7
...
2023 09 26    16 20 40.7 +12 37 02   0.06482 0.9761    64.0   112.6    25.3
...
2023 10 04    18 30 14.3 +25 05 57   0.02557 1.0009    90.1    88.5    22.2
...
2023 10 10    00 29 08.1 +17 53 48   0.02662 1.0247   166.3    13.4    20.0
2023 10 11    00 58 57.4 +14 31 43   0.03081 1.0291   172.1     7.6    20.1
2023 10 12    01 20 41.8 +11 50 36   0.03546 1.0336   174.1     5.7    20.3
...
2023 10 18    02 18 42.9 +03 55 40   0.06761 1.0624   166.5    12.6    22.0
...
2023 10 26    02 40 42.2 +00 47 30   0.1152  1.1058   164.7    13.8    23.3
...
2023 11 10    02 51 35.4 -00 10 13   0.2154  1.1980   162.8    14.1    24.9

M. P. C. Staff               (C) Copyright 2023 MPC           M.P.E.C. 2023-T165





More information about the Iaude mailing list